Location: Recife
(8.0585°S, 34.8848°W)
Time: 10:06:15
(UTC-03:00)

Courier 1B Rocket - Pass Details

Date: 23 April 2026
Orbit: 920 x 1201 km, 28.2° (Epoch: 13 May)

Event Time Altitude Azimuth Distance (km) Brightness Sun altitude
Rises 11:45:57 0° 249° (WSW) 3,886 8.1 68.1°
Reaches altitude 10° 11:48:41 10° 253° (WSW) 2,968 7.7 67.9°
Maximum altitude 11:55:53 57° 330° (NNW) 1,341 8.1 67.2°
Drops below altitude 10° 12:03:28 10° 47° (NE) 3,108 7.9 66.4°
Sets 12:06:24 0° 51° (NE) 4,081 8.3 66.0°
